time_stamp(utc),avg(mph),gust(mph),direction(deg),12m_air_temp(f),sonic_u(cm/s),sonic_v(cm/s),sonic_w(cm/s),pressure,2m_air_temp(f),pyranometer(W/m^2)
"2021-07-08 00:02:39+00",13.0,15.0,,76.6,-330,-508,15,1013.64,76.5,0
"2021-07-08 00:07:39+00",13.3,16.3,,76.4,-305,-525,0,1013.56,76.3,0
"2021-07-08 00:12:39+00",12.6,14.6,,76.2,-296,-498,-2,1013.6,76.1,0
"2021-07-08 00:17:39+00",12.3,15.3,,76.2,-312,-481,9,1013.65,76,0
"2021-07-08 00:22:39+00",12.7,14.7,,76.3,-354,-472,11,1013.66,76,0
"2021-07-08 00:27:39+00",13.4,16.4,,76.2,-378,-487,6,1013.8,76,0
"2021-07-08 00:32:39+00",13.8,15.8,,76,-376,-500,10,1013.86,75.8,0
"2021-07-08 00:37:39+00",12.4,15.4,,75.8,-343,-456,2,1013.95,75.7,0
"2021-07-08 00:42:39+00",11.3,12.3,,75.8,-307,-416,14,1013.95,75.5,0
"2021-07-08 00:47:39+00",11.6,13.6,,75.7,-293,-445,5,1013.87,75.4,0
"2021-07-08 00:52:39+00",11.4,13.4,,75.6,-304,-439,12,1013.98,75.3,0
"2021-07-08 00:57:39+00",12.4,14.4,,75.6,-352,-445,14,1014.11,75.2,0
"2021-07-08 01:02:39+00",13.5,15.5,,75.6,-386,-471,6,1014.24,75.2,0
"2021-07-08 01:07:39+00",13.0,15.0,,75.6,-353,-488,7,1014.18,75.2,0
"2021-07-08 01:12:39+00",13.6,14.6,,75.5,-355,-519,11,1014.12,75.1,0
"2021-07-08 01:17:39+00",13.7,16.7,,75.5,-363,-523,2,1014.32,75.1,0
"2021-07-08 01:22:39+00",12.4,14.4,,75.4,-320,-459,5,1014.35,75,0
"2021-07-08 01:27:39+00",12.5,14.5,,75.3,-318,-477,14,1014.42,74.9,0
"2021-07-08 01:32:39+00",16.7,20.7,,75.4,-447,-613,-17,1014.48,74.9,0
"2021-07-08 01:37:39+00",17.8,21.8,,75.4,-488,-656,13,1014.48,74.9,0
"2021-07-08 01:42:39+00",17.4,20.4,,75.3,-483,-643,11,1014.5,74.9,0
"2021-07-08 01:47:39+00",17.4,20.4,,75.2,-487,-627,9,1014.57,74.9,0
"2021-07-08 01:52:39+00",17.7,18.7,,75,-505,-654,20,1014.64,74.8,0
"2021-07-08 01:57:39+00",17.7,20.7,,75,-470,-665,20,1014.6,74.7,0
"2021-07-08 02:02:39+00",16.7,18.7,,74.8,-456,-617,7,1014.62,74.6,0
"2021-07-08 02:07:39+00",14.1,17.1,,74.7,-414,-521,31,1014.64,74.5,0
"2021-07-08 02:12:39+00",13.7,15.7,,74.6,-375,-514,5,1014.58,74.4,0
"2021-07-08 02:17:39+00",15.4,18.4,,74.5,-394,-600,1,1014.52,74.3,0
"2021-07-08 02:22:39+00",16.3,18.3,,74.7,-448,-617,-3,1014.54,74.3,0
"2021-07-08 02:27:39+00",17.3,20.3,,74.8,-472,-665,6,1014.53,74.3,0
"2021-07-08 02:32:39+00",17.1,20.1,,74.8,-454,-635,16,1014.66,74.4,0
"2021-07-08 02:37:39+00",19.1,21.1,,74.7,-504,-737,1,1014.59,74.3,0
"2021-07-08 02:42:39+00",16.2,20.2,,74.6,-451,-616,21,1014.65,74.3,0
"2021-07-08 02:47:39+00",16.0,19.0,,74.6,-432,-616,13,1014.69,74.3,0
"2021-07-08 02:52:39+00",13.7,16.7,,74.5,-355,-539,11,1014.68,74.2,0
"2021-07-08 02:57:39+00",14.8,16.8,,74.5,-360,-576,-5,1014.62,74.2,0
"2021-07-08 03:02:39+00",15.4,18.4,,74.5,-438,-563,14,1014.71,74.2,0
"2021-07-08 03:07:39+00",13.9,16.9,,74.4,-399,-471,21,1014.65,74.2,0
"2021-07-08 03:12:39+00",15.7,18.7,,74.5,-439,-552,13,1014.65,74.2,0
"2021-07-08 03:17:39+00",15.9,19.9,,74.4,-460,-569,3,1014.62,74.1,0
"2021-07-08 03:22:39+00",14.4,17.4,,74.3,-397,-537,-3,1014.48,74.1,0
"2021-07-08 03:27:39+00",15.8,17.8,,74.4,-426,-600,-4,1014.43,74,0
"2021-07-08 03:32:39+00",14.8,17.8,,74.3,-384,-566,11,1014.39,74,0
"2021-07-08 03:37:39+00",12.7,15.7,,74.3,-355,-465,4,1014.45,74,0
"2021-07-08 03:42:39+00",12.6,14.6,,74.3,-340,-474,21,1014.45,74,0
"2021-07-08 03:47:39+00",13.5,16.5,,74.3,-378,-488,8,1014.4,74,0
"2021-07-08 03:52:39+00",14.3,16.3,,74.4,-396,-522,8,1014.32,74,0
"2021-07-08 03:57:39+00",13.2,16.2,,74.4,-386,-459,13,1014.4,74,0
"2021-07-08 04:02:39+00",15.0,18.0,,74.3,-425,-547,19,1014.43,73.9,0
"2021-07-08 04:07:39+00",13.4,15.4,,74.3,-342,-511,17,1014.37,73.9,0
"2021-07-08 04:12:39+00",14.4,16.4,,74.3,-380,-560,10,1014.3,73.9,0
"2021-07-08 04:17:39+00",13.5,16.5,,74.3,-364,-492,27,1014.38,73.9,0
"2021-07-08 04:22:39+00",13.5,15.5,,74.3,-336,-525,18,1014.31,73.9,0
"2021-07-08 04:27:39+00",14.4,16.4,,74.3,-378,-547,-5,1014.27,73.9,0
"2021-07-08 04:32:39+00",14.5,17.5,,74.3,-349,-561,5,1014.27,73.9,0
"2021-07-08 04:37:39+00",16.1,18.1,,74.3,-370,-628,-12,1014.17,73.9,0
"2021-07-08 04:42:39+00",15.5,19.5,,74.4,-335,-611,5,1014.17,74,0
"2021-07-08 04:47:39+00",16.0,19.0,,74.4,-399,-627,3,1014.15,74,0
"2021-07-08 04:52:39+00",15.9,18.9,,74.5,-392,-622,-9,1014.13,74.1,0
"2021-07-08 04:57:39+00",14.4,17.4,,74.6,-369,-545,3,1014.16,74.2,0
"2021-07-08 05:02:39+00",13.5,17.5,,74.7,-363,-510,10,1014.13,74.2,0
"2021-07-08 05:07:39+00",15.9,18.9,,74.7,-415,-593,11,1014.16,74.3,0
"2021-07-08 05:12:39+00",15.8,18.8,,74.7,-399,-608,4,1013.98,74.3,0
"2021-07-08 05:17:39+00",14.9,16.9,,74.7,-383,-587,3,1014.11,74.3,0
"2021-07-08 05:22:39+00",15.5,16.5,,74.6,-378,-603,-4,1014.02,74.3,0
"2021-07-08 05:27:39+00",13.8,15.8,,74.6,-388,-515,29,1014.05,74.2,0
"2021-07-08 05:32:39+00",14.6,16.6,,74.5,-388,-564,-4,1013.95,74.2,0
"2021-07-08 05:37:39+00",13.8,16.8,,74.5,-361,-532,-14,1013.97,74.1,0
"2021-07-08 05:42:39+00",15.5,17.5,,74.5,-446,-550,8,1014.05,74.1,0
"2021-07-08 05:47:39+00",13.1,15.1,,74.4,-361,-474,-3,1014.03,74.1,0
"2021-07-08 05:52:39+00",14.3,17.3,,74.3,-372,-534,11,1014.02,74,0
"2021-07-08 05:57:39+00",13.8,15.8,,74.2,-331,-540,8,1014,73.9,0
"2021-07-08 06:02:39+00",13.5,15.5,,74.1,-304,-532,0,1013.88,73.8,0
"2021-07-08 06:07:39+00",12.6,13.6,,74.1,-284,-496,-6,1013.84,73.7,0
"2021-07-08 06:12:39+00",11.3,14.3,,74,-270,-453,9,1013.87,73.6,0
"2021-07-08 06:17:39+00",12.5,14.5,,74,-276,-492,-5,1013.8,73.6,0
"2021-07-08 06:22:39+00",9.7,11.7,,73.9,-268,-355,14,1013.93,73.6,0
"2021-07-08 06:27:39+00",9.2,11.2,,73.8,-226,-368,20,1013.83,73.4,0
"2021-07-08 06:32:39+00",10.5,12.5,,73.7,-242,-420,-1,1013.75,73.4,0
"2021-07-08 06:37:39+00",10.2,11.2,,73.7,-249,-400,4,1013.83,73.3,0
"2021-07-08 06:42:39+00",10.4,12.4,,73.7,-270,-381,12,1013.78,73.3,0
"2021-07-08 06:47:39+00",9.8,11.8,,73.6,-233,-372,1,1013.69,73.2,0
"2021-07-08 06:52:39+00",9.6,13.6,,73.6,-221,-383,7,1013.74,73.2,0
"2021-07-08 06:57:39+00",7.5,9.5,,73.5,-90,-325,-6,1013.7,73.1,0
"2021-07-08 07:02:39+00",10.3,11.3,,73.4,-172,-415,-3,1013.76,73.1,0
"2021-07-08 07:07:39+00",10.1,13.1,,73.4,-92,-424,-5,1013.71,73,0
"2021-07-08 07:12:39+00",9.8,11.8,,73.1,-96,-418,2,1013.74,72.8,0
"2021-07-08 07:17:39+00",10.2,12.2,,73,-160,-424,-5,1013.79,72.8,0
"2021-07-08 07:22:39+00",9.8,11.8,,73,-93,-400,-4,1013.78,72.7,0
"2021-07-08 07:27:39+00",10.7,13.7,,72.9,-102,-436,3,1013.76,72.7,0
"2021-07-08 07:32:39+00",9.9,13.9,,72.9,-97,-405,-3,1013.7,72.6,0
"2021-07-08 07:37:39+00",10.1,12.1,,72.9,-103,-427,-12,1013.72,72.6,0
"2021-07-08 07:42:39+00",10.7,13.7,,72.9,-116,-434,8,1013.62,72.6,0
"2021-07-08 07:47:39+00",10.8,11.8,,72.9,-161,-453,1,1013.59,72.6,0
"2021-07-08 07:52:39+00",12.8,14.8,,72.9,-212,-521,1,1013.61,72.6,0
"2021-07-08 07:57:39+00",11.5,13.5,,73,-179,-479,-13,1013.59,72.6,0
"2021-07-08 08:02:39+00",10.6,12.6,,72.8,-98,-447,-3,1013.6,72.5,0
"2021-07-08 08:07:39+00",10.3,12.3,,72.6,-162,-425,5,1013.66,72.3,0
"2021-07-08 08:12:39+00",10.3,12.3,,72.6,-166,-414,-4,1013.66,72.2,0
"2021-07-08 08:17:39+00",9.8,11.8,,72.7,-204,-383,0,1013.6,72.3,0
"2021-07-08 08:22:39+00",8.3,10.3,,72.9,-208,-319,7,1013.59,72.4,0
"2021-07-08 08:27:39+00",10.4,12.4,,73.1,-231,-406,2,1013.52,72.5,0
"2021-07-08 08:32:39+00",10.3,12.3,,73.3,-146,-410,0,1013.49,72.6,0
"2021-07-08 08:37:39+00",9.7,10.7,,73.1,-129,-394,-14,1013.53,72.5,0
"2021-07-08 08:42:39+00",7.9,9.9,,72.7,-119,-326,-4,1013.51,72.4,0
"2021-07-08 08:47:39+00",8.6,10.6,,72.8,-140,-352,-12,1013.64,72.3,0
"2021-07-08 08:52:39+00",9.8,10.8,,73,-162,-396,-13,1013.54,72.3,0
"2021-07-08 08:57:39+00",8.3,10.3,,73,-133,-325,-13,1013.49,72.3,0
"2021-07-08 09:02:39+00",6.4,8.4,,72.9,-63,-252,-7,1013.46,72.3,0
"2021-07-08 09:07:39+00",7.0,10.0,,72.6,-72,-290,-4,1013.56,72.1,0
"2021-07-08 09:12:39+00",8.6,10.6,,72.7,-112,-349,-5,1013.49,72.1,0
"2021-07-08 09:17:39+00",8.2,10.2,,72.7,-112,-340,1,1013.54,72.1,0
"2021-07-08 09:22:39+00",7.1,9.1,,72.5,-134,-279,-2,1013.55,72,0
"2021-07-08 09:27:39+00",6.2,7.2,,72.2,-144,-239,4,1013.69,71.9,0
"2021-07-08 09:32:39+00",5.6,6.6,,72.1,-137,-210,-3,1013.72,71.8,0
"2021-07-08 09:37:39+00",4.7,5.7,,72.2,-123,-165,5,1013.78,71.8,0
"2021-07-08 09:42:39+00",3.8,4.8,,72.2,-90,-129,-3,1013.82,71.7,0
"2021-07-08 09:47:39+00",3.3,4.3,,72.2,-86,-109,7,1013.75,71.7,0
"2021-07-08 09:52:39+00",3.5,4.5,,72.2,-47,-132,-7,1013.78,71.7,0
"2021-07-08 09:57:39+00",2.5,3.5,,72.2,-44,-87,-7,1013.84,71.7,0
"2021-07-08 10:02:39+00",2.8,3.8,,72.3,-33,-106,-3,1013.82,71.8,0
"2021-07-08 10:07:39+00",2.4,2.4,,72.2,10,-89,-1,1013.8,71.7,0
"2021-07-08 10:12:39+00",5.7,6.7,,72.1,116,-217,-3,1013.83,71.7,0
"2021-07-08 10:17:39+00",5.4,6.4,,71.8,23,-228,-7,1013.91,71.5,0
"2021-07-08 10:22:39+00",3.2,4.2,,71.5,15,-113,4,1013.8,71.3,0
"2021-07-08 10:27:39+00",4.7,5.7,,71.3,-17,-183,10,1013.77,71.2,0
"2021-07-08 10:32:39+00",6.6,7.6,,71.3,-74,-284,-12,1013.89,71.1,0
"2021-07-08 10:37:39+00",5.1,7.1,,71.4,-58,-218,11,1013.93,71.2,0
"2021-07-08 10:42:39+00",6.5,8.5,,71.3,-101,-257,-2,1013.94,71.2,0
"2021-07-08 10:47:39+00",6.0,8.0,,71.5,-44,-249,2,1013.93,71.4,0
"2021-07-08 10:52:39+00",6.2,7.2,,71.7,-104,-243,-1,1013.86,71.6,0
"2021-07-08 10:57:39+00",5.9,8.9,,71.9,-55,-227,0,1014.04,71.8,0
"2021-07-08 11:02:39+00",7.3,9.3,,72.2,-91,-300,-14,1014.05,72.2,0
"2021-07-08 11:07:39+00",9.9,11.9,,72.4,-142,-404,-17,1014.08,72.5,0
"2021-07-08 11:12:39+00",8.6,11.6,,72.6,-127,-359,-6,1014.03,72.6,0
"2021-07-08 11:17:39+00",7.8,9.8,,72.6,-82,-317,4,1014.07,72.6,0
"2021-07-08 11:22:39+00",6.5,8.5,,72.5,-79,-282,1,1013.95,72.5,0
"2021-07-08 11:27:39+00",6.2,8.2,,72.5,-40,-252,-19,1014.01,72.6,0
"2021-07-08 11:32:39+00",7.3,10.3,,72.7,-31,-296,1,1014.05,72.9,0
"2021-07-08 11:37:39+00",8.2,10.2,,72.7,-177,-321,1,1014.04,73.1,0
"2021-07-08 11:42:39+00",7.5,8.5,,73,-129,-310,-5,1014,73.3,0
"2021-07-08 11:47:39+00",8.6,10.6,,73.3,-116,-360,-8,1014.06,73.7,0
"2021-07-08 11:52:39+00",7.3,9.3,,73.7,-108,-288,-1,1014.1,74.2,0
"2021-07-08 11:57:39+00",8.3,10.3,,73.9,-94,-356,-12,1014.06,74.4,0
"2021-07-08 12:02:39+00",8.4,9.4,,74,-154,-336,-1,1014.08,74.5,0
"2021-07-08 12:07:39+00",10.3,11.3,,74.7,-203,-401,-17,1014.14,75.3,0
"2021-07-08 12:12:39+00",11.0,12.0,,75.3,-215,-434,-18,1014.07,76.1,0
"2021-07-08 12:17:39+00",9.2,11.2,,75.7,-113,-401,-7,1014.05,76.4,0
"2021-07-08 12:22:39+00",7.6,10.6,,75.8,-67,-326,11,1014.13,76.5,0
"2021-07-08 12:27:39+00",11.9,15.9,,75.1,-90,-495,-4,1014.19,75.6,0
"2021-07-08 12:32:39+00",11.6,12.6,,74.2,-210,-465,-13,1014.19,74.8,0
"2021-07-08 12:37:39+00",9.9,11.9,,74.1,-125,-433,7,1014.26,74.6,0
"2021-07-08 12:42:39+00",10.7,12.7,,73.8,-149,-429,-11,1014.27,74.3,0
"2021-07-08 12:47:39+00",12.5,14.5,,73.9,-182,-514,-8,1014.36,74.3,0
"2021-07-08 12:52:39+00",10.0,12.0,,73.9,-172,-411,-12,1014.3,74.3,0
"2021-07-08 12:57:39+00",10.3,13.3,,73.9,-75,-428,9,1014.42,74.3,0
"2021-07-08 13:02:39+00",9.6,11.6,,73.8,-201,-385,3,1014.31,74.2,0
"2021-07-08 13:07:39+00",8.7,10.7,,73.9,-154,-357,0,1014.4,74.3,0
"2021-07-08 13:12:39+00",9.3,11.3,,74.3,-170,-384,2,1014.36,74.7,0
"2021-07-08 13:17:39+00",7.4,9.4,,74.4,-148,-303,25,1014.3,74.9,0
"2021-07-08 13:22:39+00",10.0,12.0,,74.8,-173,-408,-11,1014.29,75.3,0
"2021-07-08 13:27:39+00",9.4,10.4,,74.9,-131,-381,-17,1014.26,75.4,0
"2021-07-08 13:32:39+00",6.3,9.3,,75,-82,-261,6,1014.32,75.6,0
"2021-07-08 13:37:39+00",5.9,7.9,,75.2,-82,-244,14,1014.25,75.8,0
"2021-07-08 13:42:39+00",7.3,8.3,,75.4,-103,-293,-1,1014.31,76.1,0
"2021-07-08 13:47:39+00",10.7,11.7,,75.8,-221,-413,-15,1014.38,76.7,0
"2021-07-08 13:52:39+00",10.2,11.2,,76,-170,-419,-12,1014.32,76.8,0
"2021-07-08 13:57:39+00",9.4,11.4,,76.6,-82,-383,-7,1014.19,77.4,0
"2021-07-08 14:02:39+00",7.6,9.6,,77.2,-141,-317,11,1014.26,78,0
"2021-07-08 14:07:39+00",9.1,11.1,,77.8,-71,-388,-26,1014.27,79.2,0
"2021-07-08 14:12:39+00",6.3,9.3,,78.4,-75,-263,32,1014.28,79.8,0
"2021-07-08 14:17:39+00",11.2,14.2,,78.7,-173,-467,-6,1014.31,80,0
"2021-07-08 14:22:39+00",6.4,9.4,,78.5,-22,-262,24,1014.32,79.4,0
"2021-07-08 14:27:39+00",8.6,10.6,,77.9,-49,-352,-8,1014.39,78.7,0
"2021-07-08 14:32:39+00",7.7,12.7,,77,-41,-305,8,1014.41,78,0
"2021-07-08 14:37:39+00",11.4,14.4,,76.7,-97,-470,-12,1014.41,77.7,0
"2021-07-08 14:42:39+00",10.2,14.2,,77.1,-94,-435,14,1014.52,78.1,0
"2021-07-08 14:47:39+00",13.5,16.5,,77.6,-118,-594,-10,1014.57,78.7,0
"2021-07-08 14:52:39+00",11.2,16.2,,77.7,-73,-501,8,1014.59,78.9,0
"2021-07-08 14:57:39+00",11.0,14.0,,77.7,-111,-464,-5,1014.47,79,0
"2021-07-08 15:02:39+00",13.4,15.4,,78.1,-149,-551,-3,1014.45,79.3,0
"2021-07-08 15:07:39+00",12.1,14.1,,78.8,-153,-502,-10,1014.41,79.8,0
"2021-07-08 15:12:39+00",11.2,14.2,,79,-154,-441,-22,1014.52,80,0
"2021-07-08 15:17:39+00",10.1,12.1,,79.2,-170,-406,14,1014.59,80.3,0
"2021-07-08 15:22:39+00",10.1,12.1,,79.1,-76,-417,-4,1014.57,80.1,0
"2021-07-08 15:27:39+00",8.8,11.8,,79.3,-83,-354,14,1014.59,80,0
"2021-07-08 15:32:39+00",9.1,13.1,,79,-64,-361,5,1014.54,79.7,0
"2021-07-08 15:37:39+00",11.2,15.2,,78.3,-81,-452,-4,1014.72,79.2,0
"2021-07-08 15:42:39+00",10.6,14.6,,77.6,-69,-433,14,1014.63,78.4,0
"2021-07-08 15:47:39+00",10.8,16.8,,77.5,-93,-442,24,1014.64,78.2,0
"2021-07-08 15:52:39+00",11.2,16.2,,77.5,-118,-460,9,1014.76,78.4,0
"2021-07-08 15:57:39+00",12.5,14.5,,78.1,-170,-517,19,1014.81,78.9,0
"2021-07-08 16:02:39+00",15.1,18.1,,78.4,-198,-610,7,1014.82,79.3,0
"2021-07-08 16:07:39+00",10.8,16.8,,78.5,-63,-470,-12,1014.85,79.4,0
"2021-07-08 16:12:39+00",16.0,18.0,,78.9,-285,-663,-11,1014.94,80.1,0
"2021-07-08 16:17:39+00",13.0,19.0,,79.2,-148,-555,-15,1014.89,80.6,0
"2021-07-08 16:22:39+00",16.5,18.5,,79.3,-321,-678,-21,1014.84,81.2,0
"2021-07-08 16:27:39+00",13.4,16.4,,79.9,-264,-542,17,1014.83,81.9,0
"2021-07-08 16:32:39+00",15.8,17.8,,80.4,-209,-656,-21,1014.76,82.1,0
"2021-07-08 16:37:39+00",14.4,17.4,,80.5,-87,-610,-13,1014.85,82,0
"2021-07-08 16:42:39+00",13.1,16.1,,80.2,-87,-547,-12,1014.83,81.5,0
"2021-07-08 16:47:39+00",13.1,18.1,,80.1,-107,-547,23,1014.86,81.5,0
"2021-07-08 16:52:39+00",13.1,18.1,,80.1,-95,-575,-17,1014.84,81.6,0
"2021-07-08 16:57:39+00",13.3,17.3,,80.2,-82,-596,-23,1014.88,81.7,0
"2021-07-08 17:02:39+00",15.3,18.3,,79.9,-111,-635,-26,1014.94,81.3,0
"2021-07-08 17:07:39+00",12.7,16.7,,80.1,-112,-549,0,1015.03,81.5,0
"2021-07-08 17:12:39+00",12.4,15.4,,80.4,-155,-511,1,1014.96,81.8,0
"2021-07-08 17:17:39+00",13.1,16.1,,80.3,-97,-565,4,1014.93,81.6,0
"2021-07-08 17:22:39+00",11.5,15.5,,80.3,-72,-465,26,1014.98,81.7,0
"2021-07-08 17:27:39+00",13.1,17.1,,80.1,-57,-558,-10,1014.96,81.6,0
"2021-07-08 17:32:39+00",13.6,17.6,,79.8,-65,-592,-36,1015.03,81.2,0
"2021-07-08 17:37:39+00",17.6,21.6,,80.6,-297,-728,-5,1014.92,82.1,0
"2021-07-08 17:42:39+00",17.0,20.0,,80.6,-202,-700,-18,1014.88,81.9,0
"2021-07-08 17:47:39+00",12.9,17.9,,81.1,-161,-502,5,1014.94,82.4,0
"2021-07-08 17:52:39+00",11.5,17.5,,81.5,-144,-456,22,1014.83,82.8,0
"2021-07-08 17:57:39+00",9.4,12.4,,81.3,-52,-383,19,1014.8,82.5,0
"2021-07-08 18:02:39+00",14.0,18.0,,81.4,-91,-597,-13,1014.81,82.7,0
"2021-07-08 18:07:39+00",15.9,19.9,,81.1,-98,-680,-25,1014.78,82.6,0
"2021-07-08 18:12:39+00",16.1,20.1,,80.8,-116,-682,-14,1014.91,82.3,0
"2021-07-08 18:17:39+00",16.5,21.5,,80.1,-151,-687,5,1014.8,81.6,0
"2021-07-08 18:22:39+00",19.4,23.4,,80.3,-244,-812,-25,1014.86,81.7,0
"2021-07-08 18:27:39+00",17.7,21.7,,80.1,-351,-721,9,1014.91,81.4,0
"2021-07-08 18:32:39+00",20.9,24.9,,79.1,-372,-862,2,1014.84,80.6,0
"2021-07-08 18:37:39+00",23.1,25.1,,78.8,-367,-950,-18,1014.77,80.2,0
"2021-07-08 18:42:39+00",19.9,22.9,,78.8,-336,-821,-20,1014.68,80.1,0
"2021-07-08 18:47:39+00",19.3,21.3,,79,-363,-775,-9,1014.76,80.1,0
"2021-07-08 18:52:39+00",14.7,19.7,,79.4,-259,-618,23,1014.7,80.5,0
"2021-07-08 18:57:39+00",18.7,20.7,,79.6,-322,-757,-18,1014.69,80.6,0
"2021-07-08 19:02:39+00",15.3,17.3,,79.9,-299,-617,-6,1014.55,80.8,0
"2021-07-08 19:07:39+00",15.0,18.0,,80,-270,-613,1,1014.4,81,0
"2021-07-08 19:12:39+00",16.8,21.8,,80.5,-212,-712,-6,1014.36,81.4,0
"2021-07-08 19:17:39+00",15.4,18.4,,80.5,-272,-634,11,1014.34,81.7,0
"2021-07-08 19:22:39+00",16.5,19.5,,80.8,-314,-679,7,1014.36,82.1,0
"2021-07-08 19:27:39+00",18.8,22.8,,80.7,-239,-802,-13,1014.4,82.1,0
"2021-07-08 19:32:39+00",18.2,23.2,,80.3,-262,-763,2,1014.41,81.6,0
"2021-07-08 19:37:39+00",19.7,22.7,,79.9,-306,-805,-15,1014.34,81.3,0
"2021-07-08 19:42:39+00",24.0,27.0,,79.2,-418,-977,-15,1014.35,80.7,0
"2021-07-08 19:47:39+00",20.7,23.7,,79.3,-275,-848,-19,1014.42,80.4,0
"2021-07-08 19:52:39+00",20.0,25.0,,79.2,-282,-812,-10,1014.33,80.6,0
"2021-07-08 19:57:39+00",19.3,26.3,,79,-266,-814,-23,1014.43,80.3,0
"2021-07-08 20:02:39+00",23.0,29.0,,78.7,-296,-974,-3,1014.36,79.8,0
"2021-07-08 20:07:39+00",23.5,30.5,,77.8,-429,-950,7,1014.33,78.9,0
"2021-07-08 20:12:39+00",25.6,30.6,,77.5,-492,-1033,-2,1014.46,78.5,0
"2021-07-08 20:17:39+00",23.6,29.6,,77.4,-386,-958,-1,1014.55,78.3,0
"2021-07-08 20:22:39+00",23.7,26.7,,77.2,-376,-975,-21,1014.42,78,0
"2021-07-08 20:27:39+00",18.6,24.6,,77.6,-338,-767,0,1014.47,78.3,0
"2021-07-08 20:32:39+00",20.6,23.6,,77.8,-356,-827,-5,1014.43,78.5,0
"2021-07-08 20:37:39+00",18.5,21.5,,78.1,-419,-725,1,1014.48,78.7,0
"2021-07-08 20:42:39+00",25.2,28.2,,78.1,-708,-940,14,1014.6,79,0
"2021-07-08 20:47:39+00",23.9,25.9,,78,-612,-915,21,1014.6,78.9,0
"2021-07-08 20:52:39+00",21.7,25.7,,77.9,-588,-837,-8,1014.5,78.9,0
"2021-07-08 20:57:39+00",21.7,25.7,,77.7,-559,-824,6,1014.52,78.6,0
"2021-07-08 21:02:39+00",16.2,18.2,,77.7,-445,-600,11,1014.65,78.4,0
"2021-07-08 21:07:39+00",18.9,21.9,,77.4,-495,-727,1,1014.52,78.3,0
"2021-07-08 21:12:39+00",16.6,18.6,,77.4,-442,-617,2,1014.47,78.1,0
"2021-07-08 21:17:39+00",17.0,21.0,,77.1,-407,-655,8,1014.46,77.9,0
"2021-07-08 21:22:39+00",17.9,20.9,,77.2,-461,-693,27,1014.45,77.7,0
"2021-07-08 21:27:39+00",17.9,19.9,,77.4,-426,-688,-5,1014.36,77.8,0
"2021-07-08 21:32:39+00",13.4,16.4,,77.5,-235,-555,-2,1014.42,77.9,0
"2021-07-08 21:37:39+00",16.4,19.4,,77.2,-313,-669,-11,1014.39,77.7,0
"2021-07-08 21:42:39+00",16.4,19.4,,77.1,-331,-648,-11,1014.27,77.6,0
"2021-07-08 21:47:39+00",13.3,17.3,,77,-196,-559,6,1014.38,77.5,0
"2021-07-08 21:52:39+00",15.1,19.1,,76.6,-198,-643,-2,1014.43,77,0
"2021-07-08 21:57:39+00",16.0,19.0,,76.1,-264,-651,-11,1014.47,76.5,0
"2021-07-08 22:02:39+00",14.8,17.8,,76,-244,-619,-8,1014.52,76.3,0
"2021-07-08 22:07:39+00",14.3,16.3,,75.9,-294,-573,-1,1014.56,76.2,0
"2021-07-08 22:12:39+00",13.9,15.9,,76,-295,-552,-4,1014.6,76.2,0
"2021-07-08 22:17:39+00",14.3,16.3,,76.3,-336,-566,-1,1014.52,76.3,0
"2021-07-08 22:22:39+00",13.0,15.0,,76.4,-374,-484,18,1014.57,76.5,0
"2021-07-08 22:27:39+00",16.2,19.2,,76.1,-496,-538,8,1014.58,76.5,0
"2021-07-08 22:32:39+00",15.2,18.2,,75.8,-452,-511,22,1014.65,76.3,0
"2021-07-08 22:37:39+00",12.3,13.3,,75.5,-370,-411,13,1014.73,76.1,0
"2021-07-08 22:42:39+00",11.7,13.7,,75.4,-385,-348,14,1014.69,76,0
"2021-07-08 22:47:39+00",9.6,11.6,,75.2,-278,-349,18,1014.77,75.8,0
"2021-07-08 22:52:39+00",9.3,12.3,,75.1,-298,-297,25,1014.69,75.7,0
"2021-07-08 22:57:39+00",8.0,9.0,,75,-144,-318,2,1014.52,75.5,0
"2021-07-08 23:02:39+00",7.3,9.3,,74.9,-120,-286,13,1014.6,75.2,0
"2021-07-08 23:07:39+00",9.1,10.1,,74.8,-127,-368,-3,1014.74,75,0
"2021-07-08 23:12:39+00",9.7,10.7,,74.9,-126,-396,-10,1014.99,74.8,0
"2021-07-08 23:17:39+00",8.8,10.8,,74.8,-78,-375,-8,1015.08,74.8,0
"2021-07-08 23:22:39+00",11.1,13.1,,74.9,-124,-459,-9,1015.23,74.7,0
"2021-07-08 23:27:39+00",9.1,12.1,,75.1,-91,-392,-13,1015.4,74.8,0
"2021-07-08 23:32:39+00",7.9,9.9,,74.4,-4,-339,-18,1015.51,74.3,0
"2021-07-08 23:37:39+00",8.3,11.3,,73.4,-61,-340,7,1015.44,73.5,0
"2021-07-08 23:42:39+00",12.7,13.7,,72.8,-154,-537,-23,1015.6,72.9,0
"2021-07-08 23:47:39+00",9.4,11.4,,72.5,-66,-392,4,1015.6,72.6,0
"2021-07-08 23:52:39+00",8.9,11.9,,72.3,-37,-383,-10,1015.57,72.3,0
"2021-07-08 23:57:39+00",9.8,12.8,,72.1,-60,-405,-6,1015.59,72.1,0
